Lid_Strength_Index
3 6 6 7 14 15 15 13 10 10 9 7 6 7 8 6 8 11 2 1 1 1 -0 -0 -0 -1 -1 -1 -1 -1 -1 -1 -1 -1 -1 -1 -1 -1 -1 -1 -1 -1 -1 -1 -1 -1 -1 -1 -1
1 3 6 10 15 17 15 11 10 9 7 6 6 6 6 8 4 4 3 1 0 0 0 -0 -0 -1 -1 -1 -1 -1 -1 -1 -1 -1 -1 -1 -1 -1 -1 -1 -1 -1 -1 -1 -1 -1 -1 -1 -1
0 1 7 12 15 16 14 9 9 8 6 6 7 5 6 6 4 3 1 1 0 0 0 -0 -0 -1 -1 -1 -1 -1 -1 -1 -1 -1 -1 -1 -1 -1 -1 -1 -1 -1 -1 -1 -1 -1 -1 -1 -1
4 5 7 14 14 11 10 8 7 7 6 7 6 6 4 3 3 2 1 1 1 0 -0 -0 -0 -0 -1 -1 -1 -1 -1 -1 -1 -1 -1 -1 -1 -1 -1 -1 -1 -1 -1 -1 -1 -1 -1 -1 -1
6 9 14 16 14 11 9 7 6 8 7 7 7 7 6 4 1 1 1 1 1 1 -0 -0 -0 -0 -1 -1 -1 -1 -1 -1 -1 -1 -1 -1 -1 -1 -1 -1 -1 -1 -1 -1 -1 -1 -1 -1 -1
10 10 16 17 14 11 10 8 7 7 7 6 7 8 6 4 2 2 1 1 1 1 0 -0 -0 -0 -0 -1 -1 -1 -1 -1 -1 -1 -1 -1 -1 -1 -1 -1 -1 -1 -1 -1 -1 -1 -1 -1 -2
11 12 15 15 14 12 11 9 8 8 7 7 6 8 6 4 3 2 1 1 1 0 0 0 -0 -0 -1 -1 -1 -1 -1 -1 -1 -1 -1 -1 -1 -1 -1 -1 -1 -1 -1 -1 -1 -1 -1 -1 -1
9 11 13 12 12 13 10 9 10 9 8 6 5 8 9 5 3 2 2 1 1 1 1 0 -0 0 -0 -0 -1 -1 -1 -1 -1 -1 -1 -1 -1 -1 -1 -1 -1 -1 -1 -1 -1 -1 -2 -2 -2
8 13 13 12 11 10 9 10 8 7 8 7 6 7 6 2 2 3 3 2 2 1 1 0 0 0 0 -0 -0 -1 -1 -1 -1 -1 -1 -0 -0 -0 -0 -1 -1 -1 -1 -1 -1 -2 -2 -2 -2
11 14 13 10 9 10 9 9 9 8 9 8 7 6 6 5 5 4 3 4 3 2 2 1 1 0 0 -0 -0 -0 -0 -0 -0 -0 -0 -0 0 0 -1 -1 -1 -1 -1 -2 -2 -2 -2 -2 -0
11 13 11 10 9 8 9 9 7 8 10 9 9 7 6 6 6 5 5 3 3 2 2 2 1 1 1 0 0 -0 0 -0 -0 -0 -0 1 -0 0 0 0 0 0 -1 0 -1 -0 -0 0 1
12 9 9 9 9 9 10 9 9 9 9 7 7 7 6 7 7 6 4 4 3 2 2 2 2 2 1 0 0 0 0 0 1 0 0 1 1 1 0 0 0 0 0 0 0 1 1 1 1
12 11 9 9 10 10 9 9 9 9 7 6 7 7 7 7 7 7 5 3 3 2 2 2 2 2 1 1 1 1 1 1 1 0 -0 0 1 0 0 0 0 0 0 1 1 1 1 2 1
9 9 9 8 9 9 9 9 9 8 7 7 6 8 7 7 7 7 7 4 3 2 2 2 2 2 2 1 1 1 0 0 1 0 0 0 0 0 1 1 1 1 1 1 1 1 1 1 0
9 11 10 9 9 9 7 10 10 8 7 7 7 7 7 7 6 6 7 6 5 2 2 2 2 1 3 3 1 1 0 0 0 0 0 0 0 0 1 1 1 1 0 0 0 0 0 1 1
10 10 13 9 8 7 7 12 8 6 7 8 7 6 6 7 6 6 6 6 6 2 2 2 2 1 2 3 1 1 1 0 0 0 -0 -0 0 1 0 1 1 1 0 0 0 1 1 1 1
12 14 13 11 8 8 8 10 7 5 6 7 7 7 6 6 6 5 5 5 6 2 2 2 1 1 2 2 1 0 0 0 0 0 1 0 0 0 0 1 1 0 0 1 1 1 1 1 2
13 13 12 12 10 8 9 10 8 6 6 7 7 7 6 6 5 5 4 4 5 2 2 2 1 1 1 1 1 1 1 0 0 1 1 0 0 0 0 1 0 0 0 1 1 1 1 1 2
10 11 11 10 8 8 9 10 9 7 7 8 8 8 7 7 5 4 3 3 3 3 2 2 2 1 1 1 2 2 2 2 1 1 1 0 0 0 0 0 0 1 1 1 1 1 2 3 2
10 11 11 9 8 8 9 10 8 7 7 7 8 8 7 7 6 5 4 3 3 5 2 2 2 2 1 1 1 1 2 2 1 1 0 0 0 1 0 1 1 1 1 2 2 2 2 2 2
10 11 11 11 9 9 10 11 9 7 7 6 6 7 7 6 6 5 5 4 3 4 3 2 2 2 1 1 1 1 1 2 2 1 1 1 0 0 0 0 0 1 1 2 2 2 2 3 2
12 8 9 10 12 16 11 18 11 9 9 7 6 6 6 6 5 5 6 5 4 3 2 2 2 2 1 1 2 2 3 3 2 2 1 1 0 0 0 0 1 1 2 1 2 2 2 2 3
10 8 9 10 13 14 13 16 13 9 10 8 7 7 7 5 5 5 7 5 4 3 2 2 2 2 1 1 2 2 2 2 2 1 1 1 1 0 0 1 2 2 2 1 2 1 2 2 2
7 10 10 11 13 18 14 16 14 12 10 9 7 6 6 7 5 4 4 5 5 4 2 2 2 2 2 1 2 2 2 2 2 2 2 2 1 1 2 2 3 3 2 2 2 1 2 3 4
9 13 18 20 19 19 12 14 14 9 7 7 7 7 6 6 6 6 5 5 5 4 3 3 3 3 2 2 2 2 2 2 2 2 2 2 2 2 3 3 3 2 2 2 2 2 4 4 4
11 12 18 22 22 17 12 15 13 8 7 7 6 6 5 5 5 5 5 4 5 4 3 3 3 3 2 2 2 2 2 2 2 2 2 2 1 2 2 3 3 2 2 3 3 4 4 5 4
11 13 11 15 14 17 14 12 9 8 8 7 7 7 7 6 5 5 4 4 4 4 3 3 3 3 2 2 2 2 2 2 2 1 1 1 1 2 2 3 3 2 3 4 4 5 6 4 4
10 9 16 16 22 21 16 14 14 11 11 9 9 8 7 6 5 5 4 4 4 5 3 3 3 3 2 2 2 2 2 1 1 1 1 1 1 2 2 3 3 3 4 4 5 5 5 5 5
12 13 12 13 15 21 21 17 10 10 10 11 9 8 7 7 5 5 4 4 4 3 5 3 3 3 3 2 2 2 2 2 1 2 2 2 2 2 3 2 3 4 5 5 5 5 6 6 6
10 13 13 18 19 17 18 17 8 8 8 8 8 7 6 6 5 5 4 4 4 4 5 3 3 3 3 2 2 2 2 2 2 2 2 3 3 3 3 4 4 5 5 5 5 6 6 6 7